Terug naar catalogus

THOR ABLESTAR DEB

ActiefLEO
NORAD 13513·DEBRIS·🇺🇸 United States

Gelanceerd Jun 29, 1961 vanaf Cape Canaveral Space Force Station

Loading…

Volgende Passages (komende 24 uur)

TLE

VersSource: Space-Track

Epoch: Sep 14, 2026, 15:42 UTC

1 13513U 61015KW  26257.65431219  .00000602  00000-0  53776-3 0  9998
2 13513  65.6788 324.7816 0094607 177.8845 343.8055 13.89858075331595

Volg THOR ABLESTAR DEB in realtime met AllMySat

Download on the App Store